Location: Allos
(44.2333°N, 6.6333°E)
Time: 03:48:32
(UTC+00:00)

Meteor 1-25 Rocket - Pass Details

Date: 01 December 2020
Orbit: 838 x 890 km, 81.2° (Epoch: 24 January)

Event Time Altitude Azimuth Distance (km) Brightness Sun altitude
Rises 16:31:18 0° 353° (N) 3,425 7.2 -6.5°
Reaches altitude 10° 16:33:46 10° 357° (N) 2,493 6.4 -6.9°
Maximum altitude 16:39:20 57° 76° (ENE) 1,014 4.3 -7.8°
Drops below altitude 10° 16:44:56 10° 155° (SSE) 2,511 6.6 -8.7°
Sets 16:47:26 0° 159° (SSE) 3,452 7.4 -9.1°
